Location: �quirre
(50.4736°N, 2.2351°E)
Time: 05:27:53
(UTC+00:00)

Cosmos 2195 Rocket - Pass Details

Date: 07 August 2020
Orbit: 949 x 993 km, 82.9° (Epoch: 23 September)

Event Time Altitude Azimuth Distance (km) Brightness Sun altitude
Rises 01:25:17 0° 348° (NNW) 3,698 8.4 -20.4°
Reaches altitude 10° 01:27:48 10° 347° (NNW) 2,751 7.6 -20.3°
Maximum altitude 01:34:05 71° 265° (W) 1,046 4.5 -19.9°
Enters shadow 01:37:07 33° 190° (S) 1,616 5.1 -19.7°
